Location: Clyde
(45.1830°S, 169.3170°E)
Time: 04:05:04
(UTC+13:00)

SL-08 RB Rocket - Pass Details

Date: 24 January 2019
Orbit: 646 x 685 km, 97.9° (Epoch: 20 October)

Event Time Altitude Azimuth Distance (km) Brightness Sun altitude
Rises 23:30:23 0° 169° (S) 3,007 7.8 -17.7°
Reaches altitude 10° 23:32:37 10° 171° (S) 2,091 6.9 -17.9°
Maximum altitude 23:37:10 72° 255° (WSW) 699 3.9 -18.4°
Enters shadow 23:40:25 19° 336° (NNW) 1,573 5.3 -18.7°
